Flag for U.S.A. Weather past 2 weeks in Des Moines, Iowa, U.S.A.

Now
74 °F

Scattered clouds.


Feels Like: 76 °F
Forecast: 66 / 81 °F
Wind: 6 mph from North

Location: Des Moines International Airport

Current Time: Jul 23, 2014 at 9:59:23 AM

Latest Report: Jul 23, 2014 at 8:54 AM


Visibility: 10 mi

Pressure: 30.17 "Hg

Humidity: 67%

Dew point: 62 °F

Location of Des MoinesLocation

Historic Weather in Des Moines — Graph

°F

Des Moines temperature yesterday

Maximum temperature yesterday: 88 °F (at 11:54 AM)
Minimum temperature yesterday: 76 °F (at 11:54 PM)
Average temperature yesterday: 82 °F

Past Weeks' High & Low Weather Summary

 TemperatureHumidityPressure
High92 °F (Jul 21, 3:54 PM)93% (Jul 13, 1:54 AM)30.17 "Hg (Jul 13, 1:54 AM)
Low55 °F (Jul 15, 5:54 AM)36% (Jul 14, 5:54 PM)29.85 "Hg (Jul 8, 8:54 AM)
Average74 °F65%29.99 "Hg
* Reported Jul 8 8:54 AM — Jul 23 8:54 AM, Des Moines, Weather by CustomWeather, © 2014

Note: Actual official high and low records may vary slightly from our data, if they occured in-between our weather recording intervals... More about our weather records

Advertising

Des Moines weather history for previous 24 hours

 ConditionsComfort  
Time TempWeatherWind HumidityBarometerVisibility
8:54 AM
Jul 23
74 °FScattered clouds.6 mph67%30.17 "Hg10 mi
7:54 AM71 °FPassing clouds.10 mph68%30.15 "Hg10 mi
5:54 AM68 °FPassing clouds.7 mph73%30.13 "Hg10 mi
4:54 AM69 °FClear.9 mph70%30.12 "Hg10 mi
3:54 AM70 °FPassing clouds.10 mph68%30.12 "Hg10 mi
2:54 AM72 °FClear.12 mph66%30.11 "Hg10 mi
12:54 AM75 °FClear.10 mph64%30.10 "Hg10 mi
11:54 PM
Jul 22
76 °FClear.12 mph67%30.09 "Hg10 mi
10:54 PM78 °FClear.9 mph66%30.07 "Hg10 mi
9:54 PM80 °FPassing clouds.14 mph62%30.05 "Hg10 mi
8:54 PM82 °FScattered clouds.13 mph63%30.03 "Hg10 mi
7:54 PM84 °FScattered clouds.14 mph61%30.02 "Hg10 mi
6:54 PM85 °FBroken clouds.10 mph61%30.01 "Hg10 mi
11:54 AM88 °FMostly cloudy.10 mph70%29.92 "Hg7 mi
10:54 AM87 °FMostly cloudy.No wind69%29.93 "Hg8 mi
9:54 AM86 °FPartly sunny.6 mph72%29.92 "Hg7 mi
Weather by CustomWeather, © 2014

See weather overviewHow to use our weather pages